Volver al catálogo

STARLINK-5460

ActivoComunicacionesVLEO
NORAD 55671·PAYLOAD·🇺🇸 United States

Lanzado Feb 17, 2023 desde Vandenberg Space Force Base

Loading…

Próximos Pases (próximas 24 horas)

TLE

ActualizadoSource: CelesTrak SupGP

Época: Sep 15, 2026, 02:45 UTC

1 55671C 23021AV  26258.11506944 -.00034347  00000+0 -28785-2 0  2587
2 55671  70.0020  47.0465 0003102 270.3531  79.7214 14.98346336    16

Sigue STARLINK-5460 en tiempo real con AllMySat

Download on the App Store